Deptford, New Jersey, United States
Lat: 39.83N, Lon: 75.13W
Wx Zone: NJZ017
Local Info
Past Weather Observations for Monday, May 23, 2016

NOTE: This archive is for the closest National Weather Service station to Deptford. Information may differ from the station used for current weather conditions.

Click here for Long-term Archive

Time Weather Temperature Dewpoint Humidity Pressure Winds Precip Visibility
23:54
Overcast
61°F / 16°C 52°F / 11°C 72% 29.95 in
(1014 mb)
SSE 5.8 mph
(SSE 9 kph)
- 10SM
22:54
Overcast
61°F / 16°C 52°F / 11°C 72% 29.95 in
(1014 mb)
SSE 6.9 mph
(SSE 11 kph)
- 10SM
21:54
Overcast
61°F / 16°C 55°F / 13°C 83% 29.95 in
(1014 mb)
SSE 5.8 mph
(SSE 9 kph)
- 10SM
20:54
Mostly Cloudy
61°F / 16°C 55°F / 13°C 83% 29.95 in
(1014 mb)
SSE 3.5 mph
(SSE 6 kph)
- 10SM
19:54
Mostly Cloudy
61°F / 16°C 57°F / 14°C 88% 29.92 in
(1013 mb)
Calm - 10SM
18:54
Mostly Cloudy
63°F / 17°C 55°F / 13°C 77% 29.92 in
(1013 mb)
NW 6.9 mph
(NW 11 kph)
- 10SM
17:54
Mostly Cloudy
63°F / 17°C 55°F / 13°C 77% 29.89 in
(1012 mb)
S 6.9 mph
(S 11 kph)
0.08 in
(2.03 mm)
10SM
17:48
Mostly Cloudy
Cumulonimbus Clouds Observed
64°F / 18°C 57°F / 14°C 78% 29.89 in
(1012 mb)
S 5.8 mph
(S 9 kph)
0.08 in
(2.03 mm)
10SM
17:42
Mostly Cloudy
Thunder Storms
64°F / 18°C 55°F / 13°C 73% 29.89 in
(1012 mb)
SSW 6.9 mph
(SSW 11 kph)
0.08 in
(2.03 mm)
10SM
17:33
Mostly Cloudy
Thunder Storms
63°F / 17°C 55°F / 13°C 77% 29.89 in
(1012 mb)
NW 5.8 mph
(NW 9 kph)
0.08 in
(2.03 mm)
7SM
17:21
Mostly Cloudy
Thunder Storms
63°F / 17°C 55°F / 13°C 77% 29.89 in
(1012 mb)
SE 6.9 mph
(SE 11 kph)
0.05 in
(1.27 mm)
5SM
17:15
Mostly Cloudy
Thunder Storms
63°F / 17°C 55°F / 13°C 77% 29.89 in
(1012 mb)
ENE 16.1 mph
(ENE 26 kph)
0.02 in
(0.51 mm)
7SM
16:54
Mostly Cloudy
Thunder Storms
73°F / 23°C 54°F / 12°C 50% 29.86 in
(1011 mb)
E 5.8 mph
(E 9 kph)
- 10SM
16:41
Mostly Cloudy
Thunder Storms
73°F / 23°C 52°F / 11°C 47% 29.86 in
(1011 mb)
ENE 5.8 mph
(ENE 9 kph)
- 10SM
15:54
Mostly Cloudy
75°F / 24°C 54°F / 12°C 47% 29.86 in
(1011 mb)
ESE 9.2 mph
(ESE 15 kph)
- 10SM
14:54
Mostly Cloudy
73°F / 23°C 52°F / 11°C 47% 29.89 in
(1012 mb)
E 6.9 mph
(E 11 kph)
- 10SM
13:54
Mostly Cloudy
75°F / 24°C 52°F / 11°C 44% 29.89 in
(1012 mb)
E 8.1 mph
(E 13 kph)
- 10SM
12:54
Mostly Cloudy
75°F / 24°C 54°F / 12°C 47% 29.92 in
(1013 mb)
ESE 10.4 mph
(ESE 17 kph)
- 10SM
11:54
Mostly Cloudy
73°F / 23°C 52°F / 11°C 47% 29.92 in
(1013 mb)
ESE 8.1 mph
(ESE 13 kph)
- 10SM
10:54
Mostly Cloudy
70°F / 21°C 54°F / 12°C 57% 29.95 in
(1014 mb)
SE 3.5 mph
(SE 6 kph)
- 10SM
09:54
Mostly Cloudy
70°F / 21°C 55°F / 13°C 60% 29.95 in
(1014 mb)
E 5.8 mph
(E 9 kph)
- 10SM
08:54
Mostly Cloudy
64°F / 18°C 55°F / 13°C 73% 29.95 in
(1014 mb)
S 4.6 mph
(S 7 kph)
- 10SM
07:54
Mostly Cloudy
63°F / 17°C 55°F / 13°C 77% 29.95 in
(1014 mb)
SE 3.5 mph
(SE 6 kph)
- 9SM
06:54
Mostly Cloudy
59°F / 15°C 54°F / 12°C 82% 29.95 in
(1014 mb)
Calm - 9SM
05:54
Overcast
57°F / 14°C 54°F / 12°C 88% 29.92 in
(1013 mb)
Calm - 8SM
04:54
Overcast
55°F / 13°C 54°F / 12°C 94% 29.92 in
(1013 mb)
NNW 3.5 mph
(NNW 6 kph)
- 8SM
04:43
Overcast
55°F / 13°C 54°F / 12°C 94% 29.92 in
(1013 mb)
Calm - 8SM
03:54
Mostly Cloudy
55°F / 13°C 52°F / 11°C 88% 29.89 in
(1012 mb)
Calm - 10SM
02:54
Overcast
55°F / 13°C 52°F / 11°C 88% 29.89 in
(1012 mb)
NNW 3.5 mph
(NNW 6 kph)
- 10SM
01:54
Mostly Cloudy
55°F / 13°C 52°F / 11°C 88% 29.89 in
(1012 mb)
Calm - 10SM
00:54
Mostly Cloudy
55°F / 13°C 54°F / 12°C 94% 29.92 in
(1013 mb)
Calm - 10SM
Time Weather Temperature Dewpoint Humidity Pressure Winds Precip Visibility


Weather for websites

WeatherForYou.com, LLC is not responsible for any damages or problems caused by this service. Current weather conditions are obtained from the closest station including government and personal stations which may have varying degrees of accuracy. Weather forecasts are derived from the NOAA NDFD. Like all things, this site belongs to Jesus Christ... He just trusts us to maintain it. If you have any questions or comments email webmaster@weatherforyou.com

Copyright © 2016, WeatherForYou.com LLC. All rights reserved.